Regional Weather Roundup
Issued by NWS Goodland, KS

Home | Current Version | Previous Version | Text Only | Print | Product List | Glossary Off
Versions: 1 2 3 4 5 6 7 8 9 10 11 12 13 14 15 16 17 18 19 20 21 22 23 24 25 26 27 28 29 30 31 32 33 34 35 36 37 38 39 40 41 42 43 44 45 46 47 48 49 50

000
ASUS43 KGLD 271108
RWRGLD

GOODLAND FORECAST AREA HOURLY WEATHER ROUNDUP
NATIONAL WEATHER SERVICE GOODLAND KS
400 AM MST THU NOV 27 2014

...OFFICIAL OBSERVATIONS...

CITY           SKY/WX    TMP DP  RH WIND       PRES   REMARKS
GOODLAND KS    CLEAR     25  18  74 S16       30.29F WCI  12
HILL CITY KS   CLEAR     20  14  77 CALM      30.41F
IMPERIAL NEB   PTCLDY    24  19  81 S6        30.28F
MCCOOK NEB     PTCLDY    20  15  81 SE7       30.34F
AKRON CO       MOCLDY    28  25  88 W14       30.23F WCI  17
BURLINGTON CO  CLEAR     25  18  74 SW14      30.27F WCI  13
LIMON CO       CLOUDY    19  16  88 CALM      30.27F
$$

...UNOFFICIAL OBSERVATIONS...

CITY           SKY/WX    TMP DP  RH WIND       PRES   REMARKS
COLBY KS       CLEAR     25  21  86 S8        30.34F
GOVE KS          N/A     21  32 100 MISG        N/A
NORTON KS      CLEAR     21  12  68 SE6       30.39S
SHARON SPRINGS   N/A     26  20  76 S12         N/A  WCI  16
TRIBUNE KS     CLEAR     27  21  80 S14       30.34F WCI  15
TRENTON NEB      N/A     20  32 100 S9          N/A
YUMA CO          N/A     22  19  86 CALM        N/A
$$


USA.gov is the U.S. government's official web portal to all federal, state and local government web resources and services.